Location: *
(46.1006°N, 1.8394°E)
Time: 23:47:32
(UTC+00:00)

Cosmos 2327 Rocket - Pass Details

Date: 20 September 2019
Orbit: 943 x 1009 km, 83.0° (Epoch: 21 October)

Event Time Altitude Azimuth Distance (km) Brightness Sun altitude
Rises 18:33:53 0° 352° (N) 3,693 7.8 -7.5°
Reaches altitude 10° 18:36:26 10° 354° (N) 2,731 7.1 -8.0°
Maximum altitude 18:42:41 79° 81° (E) 985 4.5 -9.0°
Drops below altitude 10° 18:48:49 10° 168° (SSE) 2,671 6.6 -10.1°
Sets 18:51:16 0° 170° (S) 3,606 7.2 -10.5°
